Richmond, British Columbia

11:31 PM PDT on October 18, 2017 (GMT -0700)
Richmond

Weather History for 71892 - November, 2012

Change the Weather History Date:

Friday, November 9, 2012

  Actual Average Record
Temperature  
Mean Temperature 39 °F -  
Max Temperature 47 °F 46 °F - ()
Min Temperature 31 °F 36 °F - ()
Degree Days  
Heating Degree Days 26    
Moisture  
Dew Point 27 °F    
Average Humidity 58    
Maximum Humidity 75    
Minimum Humidity 35    
Precipitation  
Precipitation 0.00 in 0.23 in - ()
Sea Level Pressure  
Sea Level Pressure 29.93 in    
Wind  
Wind Speed 3 mph ()    
Max Wind Speed 13 mph    
Max Gust Speed -    
Visibility 19.9 miles    
Events      
T = Trace of Precipitation, MM = Missing Value Source: Averaged Metar Reports

Daily Weather History Graph

Daily Weather History Graph

Search for Another Location

Airport or City:

Trip Planner

Search our weather history database for the weather conditions in past years. The results will help you decide how hot, cold, wet, or windy it might be!

Date:

Astronomy

Nov. 09, 2012 Rise Set
Actual Time 7:14 AM PST 4:38 PM PST
Civil Twilight 6:39 AM PST 5:12 PM PST
Nautical Twilight 6:01 AM PST 5:50 PM PST
Astronomical Twilight 5:24 AM PST 6:27 PM PST
Moon 1:55 AM PST (11/9) 2:14 PM PST (11/9)
Length of Visible Light 10h 32m
Length of Day
9h 24m
Waning Crescent, 22% of the Moon is Illuminated
Nov 9
Waning Crescent
Nov 13
New
Nov 20
First Quarter
Nov 28
Full
Dec 6
Last Quarter

Hourly Weather History & Observations

Time (PST) Temp. Windchill Dew Point Humidity Pressure Visibility Wind Dir Wind Speed Gust Speed Precip Events Conditions
12:00 AM 39.2 °F - 28.4 °F 65% 29.89 in 20.0 mi Calm Calm - N/A   Partly Cloudy
1:00 AM 39.2 °F 37.0 °F 28.4 °F 65% 29.88 in 20.0 mi South 3.5 mph - N/A   Partly Cloudy
2:00 AM 35.6 °F - 26.6 °F 70% 29.88 in 20.0 mi Calm Calm - N/A   Partly Cloudy
3:00 AM 35.6 °F - 28.4 °F 75% 29.89 in 20.0 mi Calm Calm - N/A   Partly Cloudy
4:00 AM 34 °F - 25 °F 60% 29.89 in 19 mi Calm Calm - -   Scattered Clouds
4:00 AM 33.8 °F - 24.8 °F 70% 29.89 in 20.0 mi Calm Calm - N/A   Partly Cloudy
5:00 AM 33.8 °F - 26.6 °F 75% 29.90 in 20.0 mi Calm Calm - N/A   Partly Cloudy
6:00 AM 37.4 °F - 26.6 °F 65% 29.90 in 20.0 mi Calm Calm - N/A   Partly Cloudy
7:00 AM 33.8 °F 30.8 °F 24.8 °F 70% 29.91 in 20.0 mi East 3.5 mph - N/A   Partly Cloudy
8:00 AM 37.4 °F 34.9 °F 24.8 °F 60% 29.93 in 20.0 mi East 3.5 mph - N/A   Partly Cloudy
9:00 AM 41.0 °F - 28.4 °F 61% 29.93 in 20.0 mi SE 2.3 mph - N/A   Partly Cloudy
10:00 AM 46 °F - 27 °F 35% 29.94 in 19 mi Calm Calm - -   Scattered Clouds
10:00 AM 46.4 °F - 26.6 °F 46% 29.94 in 20.0 mi Calm Calm - N/A   Partly Cloudy
11:00 AM 44.6 °F 42.2 °F 30.2 °F 57% 29.94 in 30.0 mi NW 4.6 mph - N/A   Partly Cloudy
12:00 PM 46.4 °F 45.2 °F 28.4 °F 50% 29.93 in 30.0 mi WNW 3.5 mph - N/A   Partly Cloudy
1:00 PM 46.4 °F 43.5 °F 26.6 °F 46% 29.93 in 30.0 mi WNW 5.8 mph - N/A   Partly Cloudy
2:00 PM 46.4 °F 42.9 °F 28.4 °F 50% 29.92 in 30.0 mi West 6.9 mph - N/A   Partly Cloudy
3:00 PM 44.6 °F 41.4 °F 32.0 °F 61% 29.92 in 30.0 mi West 5.8 mph - N/A   Partly Cloudy
4:00 PM 43 °F - 31 °F 51% 29.92 in 28 mi West 4.6 mph - -   Scattered Clouds
4:00 PM 42.8 °F 40.1 °F 30.2 °F 61% 29.92 in 30.0 mi West 4.6 mph - N/A   Partly Cloudy
5:00 PM 39.2 °F 35.0 °F 30.2 °F 70% 29.93 in 20.0 mi NW 5.8 mph - N/A   Mostly Cloudy
6:00 PM 42.8 °F 36.6 °F 30.2 °F 61% 29.94 in 20.0 mi NW 11.5 mph - N/A   Mostly Cloudy
7:00 PM 41.0 °F 38.0 °F 28.4 °F 61% 29.95 in 20.0 mi East 4.6 mph - N/A   Mostly Cloudy
8:00 PM 42.8 °F 36.6 °F 23.0 °F 46% 29.96 in 20.0 mi ESE 11.5 mph - N/A   Mostly Cloudy
9:00 PM 39.2 °F 33.6 °F 24.8 °F 56% 29.98 in 20.0 mi ESE 8.1 mph - N/A   Mostly Cloudy
10:00 PM 40 °F - 24 °F 41% 29.98 in 19 mi ESE 6.9 mph - -   Scattered Clouds
10:00 PM 39.2 °F 34.2 °F 24.8 °F 56% 29.98 in 20.0 mi ESE 6.9 mph - N/A   Mostly Cloudy
11:00 PM 41.0 °F 33.9 °F 21.2 °F 45% 30.00 in 20.0 mi East 12.7 mph - N/A   Mostly Cloudy